owner,sensor,date,latitude,longitude,vertical_datum,wind_speed,wind_to_direction,wind_speed_of_gust,qcFlag 
DISL,ioos:station:DISL:BSCA:1,2013-07-01T00:00:00Z,30.3288,-87.8293,0.0,3.1,205.0,99.0,'11111222,11111222,11144222' 
DISL,ioos:station:DISL:BSCA:1,2013-07-01T00:30:00Z,30.3288,-87.8293,0.0,3.9,245.0,99.0,'11111222,11111222,11144222' 
DISL,ioos:station:DISL:BSCA:1,2013-07-01T01:00:00Z,30.3288,-87.8293,0.0,5.0,249.0,99.0,'11111222,11111222,11144222' 
DISL,ioos:station:DISL:BSCA:1,2013-07-01T01:30:00Z,30.3288,-87.8293,0.0,5.3,248.0,99.0,'11111222,11111222,11144222' 
DISL,ioos:station:DISL:BSCA:1,2013-07-01T02:00:00Z,30.3288,-87.8293,0.0,5.8,245.0,99.0,'11111222,11111222,11144222' 
DISL,ioos:station:DISL:BSCA:1,2013-07-01T02:30:00Z,30.3288,-87.8293,0.0,4.4,254.0,99.0,'11111222,11111222,11144222' 
DISL,ioos:station:DISL:BSCA:1,2013-07-01T03:00:00Z,30.3288,-87.8293,0.0,1.8,352.0,99.0,'11111222,11111222,11144222' 
DISL,ioos:station:DISL:BSCA:1,2013-07-01T03:30:00Z,30.3288,-87.8293,0.0,3.3,323.0,99.0,'11111222,11111222,11144222' 
DISL,ioos:station:DISL:BSCA:1,2013-07-01T04:00:00Z,30.3288,-87.8293,0.0,5.7,332.0,99.0,'11111222,11111222,11144222' 
DISL,ioos:station:DISL:BSCA:1,2013-07-01T04:30:00Z,30.3288,-87.8293,0.0,4.9,340.0,99.0,'11111222,11111222,11144222' 
DISL,ioos:station:DISL:BSCA:1,2013-07-01T05:00:00Z,30.3288,-87.8293,0.0,6.4,346.0,99.0,'11111222,11111222,11144222' 
DISL,ioos:station:DISL:BSCA:1,2013-07-01T05:30:00Z,30.3288,-87.8293,0.0,5.6,1.0,99.0,'11111222,11111222,11144222' 
DISL,ioos:station:DISL:BSCA:1,2013-07-01T06:00:00Z,30.3288,-87.8293,0.0,4.9,23.0,99.0,'11111222,11111222,11144222' 
DISL,ioos:station:DISL:BSCA:1,2013-07-01T06:30:00Z,30.3288,-87.8293,0.0,3.4,23.0,99.0,'11111222,11111222,11144222' 
DISL,ioos:station:DISL:BSCA:1,2013-07-01T07:00:00Z,30.3288,-87.8293,0.0,0.8,113.0,99.0,'11111222,11111222,11144222' 
DISL,ioos:station:DISL:BSCA:1,2013-07-01T07:30:00Z,30.3288,-87.8293,0.0,2.6,350.0,99.0,'11111222,11111222,11144222' 
DISL,ioos:station:DISL:BSCA:1,2013-07-01T08:00:00Z,30.3288,-87.8293,0.0,2.6,12.0,99.0,'11111222,11111222,11144222' 
DISL,ioos:station:DISL:BSCA:1,2013-07-01T08:30:00Z,30.3288,-87.8293,0.0,3.4,11.0,99.0,'11111222,11111222,11144222' 
DISL,ioos:station:DISL:BSCA:1,2013-07-01T09:00:00Z,30.3288,-87.8293,0.0,3.1,350.0,99.0,'11111222,11111222,11144222' 
DISL,ioos:station:DISL:BSCA:1,2013-07-01T09:30:00Z,30.3288,-87.8293,0.0,4.3,325.0,99.0,'11111222,11111222,11144222' 
DISL,ioos:station:DISL:BSCA:1,2013-07-01T10:00:00Z,30.3288,-87.8293,0.0,4.3,350.0,99.0,'11111222,11111222,11144222' 
DISL,ioos:station:DISL:BSCA:1,2013-07-01T10:30:00Z,30.3288,-87.8293,0.0,3.5,355.0,99.0,'11111222,11111222,11144222' 
DISL,ioos:station:DISL:BSCA:1,2013-07-01T11:00:00Z,30.3288,-87.8293,0.0,4.4,353.0,99.0,'11111222,11111222,11144222' 
DISL,ioos:station:DISL:BSCA:1,2013-07-01T11:30:00Z,30.3288,-87.8293,0.0,4.5,337.0,99.0,'11111222,11111222,11144222' 
DISL,ioos:station:DISL:BSCA:1,2013-07-01T12:00:00Z,30.3288,-87.8293,0.0,5.1,342.0,99.0,'11111222,11111222,11144222' 
DISL,ioos:station:DISL:BSCA:1,2013-07-01T12:30:00Z,30.3288,-87.8293,0.0,3.2,6.0,99.0,'11111222,11111222,11144222' 
DISL,ioos:station:DISL:BSCA:1,2013-07-01T13:00:00Z,30.3288,-87.8293,0.0,5.3,344.0,99.0,'11111222,11111222,11144222' 
DISL,ioos:station:DISL:BSCA:1,2013-07-01T13:30:00Z,30.3288,-87.8293,0.0,3.9,355.0,99.0,'11111222,11111222,11144222' 
DISL,ioos:station:DISL:BSCA:1,2013-07-01T14:00:00Z,30.3288,-87.8293,0.0,2.9,339.0,99.0,'11111222,11111222,11144222' 
DISL,ioos:station:DISL:BSCA:1,2013-07-01T14:30:00Z,30.3288,-87.8293,0.0,3.0,348.0,99.0,'11111222,11111222,11144222' 
DISL,ioos:station:DISL:BSCA:1,2013-07-01T15:00:00Z,30.3288,-87.8293,0.0,2.5,328.0,99.0,'11111222,11111222,11144222' 
DISL,ioos:station:DISL:BSCA:1,2013-07-01T15:30:00Z,30.3288,-87.8293,0.0,2.4,321.0,99.0,'11111222,11111222,11144222' 
DISL,ioos:station:DISL:BSCA:1,2013-07-01T16:00:00Z,30.3288,-87.8293,0.0,3.6,301.0,99.0,'11111222,11111222,11144222' 
DISL,ioos:station:DISL:BSCA:1,2013-07-01T16:30:00Z,30.3288,-87.8293,0.0,3.8,304.0,99.0,'11111222,11111222,11144222' 
DISL,ioos:station:DISL:BSCA:1,2013-07-01T17:00:00Z,30.3288,-87.8293,0.0,4.1,301.0,99.0,'11111222,11111222,11144222' 
DISL,ioos:station:DISL:BSCA:1,2013-07-01T17:30:00Z,30.3288,-87.8293,0.0,4.1,300.0,99.0,'11111222,11111222,11144222' 
DISL,ioos:station:DISL:BSCA:1,2013-07-01T18:00:00Z,30.3288,-87.8293,0.0,3.3,279.0,99.0,'11111222,11111222,11144222' 
DISL,ioos:station:DISL:BSCA:1,2013-07-01T18:30:00Z,30.3288,-87.8293,0.0,2.4,258.0,99.0,'11111222,11111222,11144222' 
DISL,ioos:station:DISL:BSCA:1,2013-07-01T19:00:00Z,30.3288,-87.8293,0.0,3.2,234.0,99.0,'11111222,11111222,11144222' 
DISL,ioos:station:DISL:BSCA:1,2013-07-01T19:30:00Z,30.3288,-87.8293,0.0,3.4,240.0,99.0,'11111222,11111222,11144222' 
DISL,ioos:station:DISL:BSCA:1,2013-07-01T20:00:00Z,30.3288,-87.8293,0.0,2.8,240.0,99.0,'11111222,11111222,11144222' 
DISL,ioos:station:DISL:BSCA:1,2013-07-01T20:30:00Z,30.3288,-87.8293,0.0,3.5,221.0,99.0,'11111222,11111222,11144222' 
DISL,ioos:station:DISL:BSCA:1,2013-07-01T21:00:00Z,30.3288,-87.8293,0.0,5.2,245.0,99.0,'11111222,11111222,11144222' 
DISL,ioos:station:DISL:BSCA:1,2013-07-01T21:30:00Z,30.3288,-87.8293,0.0,6.0,242.0,99.0,'11111222,11111222,11144222' 
DISL,ioos:station:DISL:BSCA:1,2013-07-01T22:00:00Z,30.3288,-87.8293,0.0,6.1,240.0,99.0,'11111222,11111222,11144222' 
DISL,ioos:station:DISL:BSCA:1,2013-07-01T22:30:00Z,30.3288,-87.8293,0.0,5.2,236.0,99.0,'11111222,11111222,11144222' 
DISL,ioos:station:DISL:BSCA:1,2013-07-01T23:00:00Z,30.3288,-87.8293,0.0,5.3,238.0,99.0,'11111222,11111222,11144222' 
DISL,ioos:station:DISL:BSCA:1,2013-07-01T23:30:00Z,30.3288,-87.8293,0.0,6.1,242.0,99.0,'11111222,11111222,11144222' 
DISL,ioos:station:DISL:BSCA:1,2013-07-02T00:00:00Z,30.3288,-87.8293,0.0,5.6,227.0,99.0,'11111222,11111222,11144222' 
DISL,ioos:station:DISL:BSCA:1,2013-07-02T00:30:00Z,30.3288,-87.8293,0.0,5.8,233.0,99.0,'11111222,11111222,11144222' 
DISL,ioos:station:DISL:BSCA:1,2013-07-02T01:00:00Z,30.3288,-87.8293,0.0,5.6,244.0,99.0,'11111222,11111222,11144222' 
DISL,ioos:station:DISL:BSCA:1,2013-07-02T01:30:00Z,30.3288,-87.8293,0.0,6.1,249.0,99.0,'11111222,11111222,11144222' 
DISL,ioos:station:DISL:BSCA:1,2013-07-02T02:00:00Z,30.3288,-87.8293,0.0,6.1,251.0,99.0,'11111222,11111222,11144222' 
DISL,ioos:station:DISL:BSCA:1,2013-07-02T02:30:00Z,30.3288,-87.8293,0.0,5.4,245.0,99.0,'11111222,11111222,11144222' 
DISL,ioos:station:DISL:BSCA:1,2013-07-02T03:00:00Z,30.3288,-87.8293,0.0,4.6,244.0,99.0,'11111222,11111222,11144222' 
DISL,ioos:station:DISL:BSCA:1,2013-07-02T03:30:00Z,30.3288,-87.8293,0.0,4.4,261.0,99.0,'11111222,11111222,11144222' 
DISL,ioos:station:DISL:BSCA:1,2013-07-02T04:00:00Z,30.3288,-87.8293,0.0,4.3,290.0,99.0,'11111222,11111222,11144222' 
DISL,ioos:station:DISL:BSCA:1,2013-07-02T04:30:00Z,30.3288,-87.8293,0.0,4.2,304.0,99.0,'11111222,11111222,11144222' 
DISL,ioos:station:DISL:BSCA:1,2013-07-02T05:00:00Z,30.3288,-87.8293,0.0,4.9,346.0,99.0,'11111222,11111222,11144222' 
DISL,ioos:station:DISL:BSCA:1,2013-07-02T05:30:00Z,30.3288,-87.8293,0.0,4.5,2.0,99.0,'11111222,11111222,11144222' 
DISL,ioos:station:DISL:BSCA:1,2013-07-02T06:00:00Z,30.3288,-87.8293,0.0,4.4,23.0,99.0,'11111222,11111222,11144222' 
DISL,ioos:station:DISL:BSCA:1,2013-07-02T06:30:00Z,30.3288,-87.8293,0.0,3.5,20.0,99.0,'11111222,11111222,11144222' 
DISL,ioos:station:DISL:BSCA:1,2013-07-02T07:00:00Z,30.3288,-87.8293,0.0,3.8,19.0,99.0,'11111222,11111222,11144222' 
DISL,ioos:station:DISL:BSCA:1,2013-07-02T07:30:00Z,30.3288,-87.8293,0.0,3.5,10.0,99.0,'11111222,11111222,11144222' 
DISL,ioos:station:DISL:BSCA:1,2013-07-02T08:00:00Z,30.3288,-87.8293,0.0,3.4,10.0,99.0,'11111222,11111222,11144222' 
DISL,ioos:station:DISL:BSCA:1,2013-07-02T08:30:00Z,30.3288,-87.8293,0.0,3.0,17.0,99.0,'11111222,11111222,11144222' 
DISL,ioos:station:DISL:BSCA:1,2013-07-02T09:00:00Z,30.3288,-87.8293,0.0,3.9,10.0,99.0,'11111222,11111222,11144222' 
DISL,ioos:station:DISL:BSCA:1,2013-07-02T09:30:00Z,30.3288,-87.8293,0.0,3.8,20.0,99.0,'11111222,11111222,11144222' 
DISL,ioos:station:DISL:BSCA:1,2013-07-02T10:00:00Z,30.3288,-87.8293,0.0,4.1,5.0,99.0,'11111222,11111222,11144222' 
DISL,ioos:station:DISL:BSCA:1,2013-07-02T10:30:00Z,30.3288,-87.8293,0.0,2.5,14.0,99.0,'11111222,11111222,11144222' 
DISL,ioos:station:DISL:BSCA:1,2013-07-02T11:00:00Z,30.3288,-87.8293,0.0,1.9,13.0,99.0,'11111222,11111222,11144222' 
DISL,ioos:station:DISL:BSCA:1,2013-07-02T11:30:00Z,30.3288,-87.8293,0.0,2.2,47.0,99.0,'11111222,11111222,11144222' 
DISL,ioos:station:DISL:BSCA:1,2013-07-02T12:00:00Z,30.3288,-87.8293,0.0,3.3,33.0,99.0,'11111222,11111222,11144222' 
DISL,ioos:station:DISL:BSCA:1,2013-07-02T12:30:00Z,30.3288,-87.8293,0.0,2.5,46.0,99.0,'11111222,11111222,11144222' 
DISL,ioos:station:DISL:BSCA:1,2013-07-02T13:00:00Z,30.3288,-87.8293,0.0,3.0,26.0,99.0,'11111222,11111222,11144222' 
DISL,ioos:station:DISL:BSCA:1,2013-07-02T13:30:00Z,30.3288,-87.8293,0.0,2.8,26.0,99.0,'11111222,11111222,11144222' 
DISL,ioos:station:DISL:BSCA:1,2013-07-02T14:00:00Z,30.3288,-87.8293,0.0,2.4,5.0,99.0,'11111222,11111222,11144222' 
DISL,ioos:station:DISL:BSCA:1,2013-07-02T14:30:00Z,30.3288,-87.8293,0.0,2.5,15.0,99.0,'11111222,11111222,11144222' 
DISL,ioos:station:DISL:BSCA:1,2013-07-02T15:00:00Z,30.3288,-87.8293,0.0,1.3,30.0,99.0,'11111222,11111222,11144222' 
DISL,ioos:station:DISL:BSCA:1,2013-07-02T15:30:00Z,30.3288,-87.8293,0.0,0.6,127.0,99.0,'11111222,11111222,11144222' 
DISL,ioos:station:DISL:BSCA:1,2013-07-02T16:00:00Z,30.3288,-87.8293,0.0,1.1,171.0,99.0,'11111222,11111222,11144222' 
DISL,ioos:station:DISL:BSCA:1,2013-07-02T16:30:00Z,30.3288,-87.8293,0.0,2.7,171.0,99.0,'11111222,11111222,11144222' 
DISL,ioos:station:DISL:BSCA:1,2013-07-02T17:00:00Z,30.3288,-87.8293,0.0,2.7,192.0,99.0,'11111222,11111222,11144222' 
DISL,ioos:station:DISL:BSCA:1,2013-07-02T17:30:00Z,30.3288,-87.8293,0.0,2.8,221.0,99.0,'11111222,11111222,11144222' 
DISL,ioos:station:DISL:BSCA:1,2013-07-02T18:00:00Z,30.3288,-87.8293,0.0,3.1,207.0,99.0,'11111222,11111222,11144222' 
DISL,ioos:station:DISL:BSCA:1,2013-07-02T18:30:00Z,30.3288,-87.8293,0.0,4.1,201.0,99.0,'11111222,11111222,11144222' 
DISL,ioos:station:DISL:BSCA:1,2013-07-02T19:00:00Z,30.3288,-87.8293,0.0,3.1,218.0,99.0,'11111222,11111222,11144222' 
DISL,ioos:station:DISL:BSCA:1,2013-07-02T19:30:00Z,30.3288,-87.8293,0.0,3.1,202.0,99.0,'11111222,11111222,11144222' 
DISL,ioos:station:DISL:BSCA:1,2013-07-02T20:00:00Z,30.3288,-87.8293,0.0,3.5,213.0,99.0,'11111222,11111222,11144222' 
DISL,ioos:station:DISL:BSCA:1,2013-07-02T20:30:00Z,30.3288,-87.8293,0.0,4.2,204.0,99.0,'11111222,11111222,11144222' 
DISL,ioos:station:DISL:BSCA:1,2013-07-02T21:00:00Z,30.3288,-87.8293,0.0,4.1,183.0,99.0,'11111222,11111222,11144222' 
DISL,ioos:station:DISL:BSCA:1,2013-07-02T21:30:00Z,30.3288,-87.8293,0.0,4.8,180.0,99.0,'11111222,11111222,11144222' 
DISL,ioos:station:DISL:BSCA:1,2013-07-02T22:00:00Z,30.3288,-87.8293,0.0,4.5,179.0,99.0,'11111222,11111222,11144222' 
DISL,ioos:station:DISL:BSCA:1,2013-07-02T22:30:00Z,30.3288,-87.8293,0.0,4.0,186.0,99.0,'11111222,11111222,11144222' 
DISL,ioos:station:DISL:BSCA:1,2013-07-02T23:00:00Z,30.3288,-87.8293,0.0,4.0,169.0,99.0,'11111222,11111222,11144222' 
DISL,ioos:station:DISL:BSCA:1,2013-07-02T23:30:00Z,30.3288,-87.8293,0.0,4.0,158.0,99.0,'11111222,11111222,11144222' 
DISL,ioos:station:DISL:BSCA:1,2013-07-03T00:00:00Z,30.3288,-87.8293,0.0,3.8,154.0,99.0,'11111222,11111222,11144222' 
DISL,ioos:station:DISL:BSCA:1,2013-07-03T00:30:00Z,30.3288,-87.8293,0.0,3.9,159.0,99.0,'11111222,11111222,11144222' 
DISL,ioos:station:DISL:BSCA:1,2013-07-03T01:00:00Z,30.3288,-87.8293,0.0,3.9,160.0,99.0,'11111222,11111222,11144222' 
DISL,ioos:station:DISL:BSCA:1,2013-07-03T01:30:00Z,30.3288,-87.8293,0.0,3.2,171.0,99.0,'11111222,11111222,11144222' 
DISL,ioos:station:DISL:BSCA:1,2013-07-03T02:00:00Z,30.3288,-87.8293,0.0,2.9,169.0,99.0,'11111222,11111222,11144222' 
DISL,ioos:station:DISL:BSCA:1,2013-07-03T02:30:00Z,30.3288,-87.8293,0.0,3.0,165.0,99.0,'11111222,11111222,11144222' 
DISL,ioos:station:DISL:BSCA:1,2013-07-03T03:00:00Z,30.3288,-87.8293,0.0,3.3,154.0,99.0,'11111222,11111222,11144222' 
DISL,ioos:station:DISL:BSCA:1,2013-07-03T03:30:00Z,30.3288,-87.8293,0.0,3.0,136.0,99.0,'11111222,11111222,11144222' 
DISL,ioos:station:DISL:BSCA:1,2013-07-03T04:00:00Z,30.3288,-87.8293,0.0,2.3,76.0,99.0,'11111222,11111222,11144222' 
DISL,ioos:station:DISL:BSCA:1,2013-07-03T04:30:00Z,30.3288,-87.8293,0.0,1.5,81.0,99.0,'11111222,11111222,11144222' 
DISL,ioos:station:DISL:BSCA:1,2013-07-03T05:00:00Z,30.3288,-87.8293,0.0,2.3,53.0,99.0,'11111222,11111222,11144222' 
DISL,ioos:station:DISL:BSCA:1,2013-07-03T05:30:00Z,30.3288,-87.8293,0.0,2.7,51.0,99.0,'11111222,11111222,11144222' 
DISL,ioos:station:DISL:BSCA:1,2013-07-03T06:00:00Z,30.3288,-87.8293,0.0,3.1,45.0,99.0,'11111222,11111222,11144222' 
DISL,ioos:station:DISL:BSCA:1,2013-07-03T06:30:00Z,30.3288,-87.8293,0.0,3.5,54.0,99.0,'11111222,11111222,11144222' 
DISL,ioos:station:DISL:BSCA:1,2013-07-03T07:00:00Z,30.3288,-87.8293,0.0,3.2,56.0,99.0,'11111222,11111222,11144222' 
DISL,ioos:station:DISL:BSCA:1,2013-07-03T07:30:00Z,30.3288,-87.8293,0.0,3.4,58.0,99.0,'11111222,11111222,11144222' 
DISL,ioos:station:DISL:BSCA:1,2013-07-03T08:00:00Z,30.3288,-87.8293,0.0,4.1,73.0,99.0,'11111222,11111222,11144222' 
DISL,ioos:station:DISL:BSCA:1,2013-07-03T08:30:00Z,30.3288,-87.8293,0.0,3.8,64.0,99.0,'11111222,11111222,11144222' 
DISL,ioos:station:DISL:BSCA:1,2013-07-03T09:00:00Z,30.3288,-87.8293,0.0,4.1,56.0,99.0,'11111222,11111222,11144222' 
DISL,ioos:station:DISL:BSCA:1,2013-07-03T09:30:00Z,30.3288,-87.8293,0.0,3.6,42.0,99.0,'11111222,11111222,11144222' 
DISL,ioos:station:DISL:BSCA:1,2013-07-03T10:00:00Z,30.3288,-87.8293,0.0,4.0,44.0,99.0,'11111222,11111222,11144222' 
DISL,ioos:station:DISL:BSCA:1,2013-07-03T10:30:00Z,30.3288,-87.8293,0.0,4.5,46.0,99.0,'11111222,11111222,11144222' 
DISL,ioos:station:DISL:BSCA:1,2013-07-03T11:00:00Z,30.3288,-87.8293,0.0,4.6,46.0,99.0,'11111222,11111222,11144222' 
DISL,ioos:station:DISL:BSCA:1,2013-07-03T11:30:00Z,30.3288,-87.8293,0.0,4.6,46.0,99.0,'11111222,11111222,11144222' 
DISL,ioos:station:DISL:BSCA:1,2013-07-03T12:00:00Z,30.3288,-87.8293,0.0,5.1,45.0,99.0,'11111222,11111222,11144222' 
DISL,ioos:station:DISL:BSCA:1,2013-07-03T12:30:00Z,30.3288,-87.8293,0.0,4.4,32.0,99.0,'11111222,11111222,11144222' 
DISL,ioos:station:DISL:BSCA:1,2013-07-03T13:00:00Z,30.3288,-87.8293,0.0,4.9,40.0,99.0,'11111222,11111222,11144222' 
DISL,ioos:station:DISL:BSCA:1,2013-07-03T13:30:00Z,30.3288,-87.8293,0.0,4.9,53.0,99.0,'11111222,11111222,11144222' 
DISL,ioos:station:DISL:BSCA:1,2013-07-03T14:00:00Z,30.3288,-87.8293,0.0,4.0,57.0,99.0,'11111222,11111222,11144222' 
DISL,ioos:station:DISL:BSCA:1,2013-07-03T14:30:00Z,30.3288,-87.8293,0.0,3.9,54.0,99.0,'11111222,11111222,11144222' 
DISL,ioos:station:DISL:BSCA:1,2013-07-03T15:00:00Z,30.3288,-87.8293,0.0,2.4,73.0,99.0,'11111222,11111222,11144222' 
DISL,ioos:station:DISL:BSCA:1,2013-07-03T15:30:00Z,30.3288,-87.8293,0.0,2.6,64.0,99.0,'11111222,11111222,11144222' 
DISL,ioos:station:DISL:BSCA:1,2013-07-03T16:00:00Z,30.3288,-87.8293,0.0,4.0,58.0,99.0,'11111222,11111222,11144222' 
DISL,ioos:station:DISL:BSCA:1,2013-07-03T16:30:00Z,30.3288,-87.8293,0.0,3.7,77.0,99.0,'11111222,11111222,11144222' 
DISL,ioos:station:DISL:BSCA:1,2013-07-03T17:00:00Z,30.3288,-87.8293,0.0,3.8,72.0,99.0,'11111222,11111222,11144222' 
DISL,ioos:station:DISL:BSCA:1,2013-07-03T17:30:00Z,30.3288,-87.8293,0.0,4.6,71.0,99.0,'11111222,11111222,11144222' 
DISL,ioos:station:DISL:BSCA:1,2013-07-03T18:00:00Z,30.3288,-87.8293,0.0,4.3,78.0,99.0,'11111222,11111222,11144222' 
DISL,ioos:station:DISL:BSCA:1,2013-07-03T18:30:00Z,30.3288,-87.8293,0.0,8.2,114.0,99.0,'11111222,11111222,11144222' 
DISL,ioos:station:DISL:BSCA:1,2013-07-03T19:00:00Z,30.3288,-87.8293,0.0,9.2,105.0,99.0,'11111222,11111222,11144222' 
DISL,ioos:station:DISL:BSCA:1,2013-07-03T19:30:00Z,30.3288,-87.8293,0.0,7.4,101.0,99.0,'11111222,11111222,11144222' 
DISL,ioos:station:DISL:BSCA:1,2013-07-03T20:00:00Z,30.3288,-87.8293,0.0,7.3,103.0,99.0,'11111222,11111222,11144222' 
DISL,ioos:station:DISL:BSCA:1,2013-07-03T20:30:00Z,30.3288,-87.8293,0.0,7.7,103.0,99.0,'11111222,11111222,11144222' 
DISL,ioos:station:DISL:BSCA:1,2013-07-03T21:00:00Z,30.3288,-87.8293,0.0,7.3,118.0,99.0,'11111222,11111222,11144222' 
DISL,ioos:station:DISL:BSCA:1,2013-07-03T21:30:00Z,30.3288,-87.8293,0.0,6.9,110.0,99.0,'11111222,11111222,11144222' 
DISL,ioos:station:DISL:BSCA:1,2013-07-03T22:00:00Z,30.3288,-87.8293,0.0,8.4,120.0,99.0,'11111222,11111222,11144222' 
DISL,ioos:station:DISL:BSCA:1,2013-07-03T22:30:00Z,30.3288,-87.8293,0.0,7.6,116.0,99.0,'11111222,11111222,11144222' 
DISL,ioos:station:DISL:BSCA:1,2013-07-03T23:00:00Z,30.3288,-87.8293,0.0,6.5,120.0,99.0,'11111222,11111222,11144222' 
DISL,ioos:station:DISL:BSCA:1,2013-07-03T23:30:00Z,30.3288,-87.8293,0.0,6.4,102.0,99.0,'11111222,11111222,11144222' 
DISL,ioos:station:DISL:BSCA:1,2013-07-04T00:00:00Z,30.3288,-87.8293,0.0,5.8,97.0,99.0,'11111222,11111222,11144222' 
DISL,ioos:station:DISL:BSCA:1,2013-07-04T00:30:00Z,30.3288,-87.8293,0.0,4.3,91.0,99.0,'11111222,11111222,11144222' 
DISL,ioos:station:DISL:BSCA:1,2013-07-04T01:00:00Z,30.3288,-87.8293,0.0,4.8,81.0,99.0,'11111222,11111222,11144222' 
DISL,ioos:station:DISL:BSCA:1,2013-07-04T01:30:00Z,30.3288,-87.8293,0.0,4.8,77.0,99.0,'11111222,11111222,11144222' 
DISL,ioos:station:DISL:BSCA:1,2013-07-04T02:00:00Z,30.3288,-87.8293,0.0,3.6,64.0,99.0,'11111222,11111222,11144222' 
DISL,ioos:station:DISL:BSCA:1,2013-07-04T02:30:00Z,30.3288,-87.8293,0.0,4.0,71.0,99.0,'11111222,11111222,11144222' 
DISL,ioos:station:DISL:BSCA:1,2013-07-04T03:00:00Z,30.3288,-87.8293,0.0,3.7,57.0,99.0,'11111222,11111222,11144222' 
DISL,ioos:station:DISL:BSCA:1,2013-07-04T03:30:00Z,30.3288,-87.8293,0.0,4.9,66.0,99.0,'11111222,11111222,11144222' 
DISL,ioos:station:DISL:BSCA:1,2013-07-04T04:00:00Z,30.3288,-87.8293,0.0,7.2,98.0,99.0,'11111222,11111222,11144222' 
DISL,ioos:station:DISL:BSCA:1,2013-07-04T04:30:00Z,30.3288,-87.8293,0.0,6.0,71.0,99.0,'11111222,11111222,11144222' 
DISL,ioos:station:DISL:BSCA:1,2013-07-04T05:00:00Z,30.3288,-87.8293,0.0,8.2,47.0,99.0,'11111222,11111222,11144222' 
DISL,ioos:station:DISL:BSCA:1,2013-07-04T05:30:00Z,30.3288,-87.8293,0.0,3.5,59.0,99.0,'11111222,11111222,11144222' 
DISL,ioos:station:DISL:BSCA:1,2013-07-04T06:00:00Z,30.3288,-87.8293,0.0,5.5,44.0,99.0,'11111222,11111222,11144222' 
DISL,ioos:station:DISL:BSCA:1,2013-07-04T06:30:00Z,30.3288,-87.8293,0.0,4.1,35.0,99.0,'11111222,11111222,11144222' 
DISL,ioos:station:DISL:BSCA:1,2013-07-04T07:00:00Z,30.3288,-87.8293,0.0,4.2,13.0,99.0,'11111222,11111222,11144222' 
DISL,ioos:station:DISL:BSCA:1,2013-07-04T07:30:00Z,30.3288,-87.8293,0.0,5.6,61.0,99.0,'11111222,11111222,11144222' 
DISL,ioos:station:DISL:BSCA:1,2013-07-04T08:00:00Z,30.3288,-87.8293,0.0,5.5,25.0,99.0,'11111222,11111222,11144222' 
DISL,ioos:station:DISL:BSCA:1,2013-07-04T08:30:00Z,30.3288,-87.8293,0.0,5.5,34.0,99.0,'11111222,11111222,11144222' 
DISL,ioos:station:DISL:BSCA:1,2013-07-04T09:00:00Z,30.3288,-87.8293,0.0,5.0,75.0,99.0,'11111222,11111222,11144222' 
DISL,ioos:station:DISL:BSCA:1,2013-07-04T09:30:00Z,30.3288,-87.8293,0.0,2.4,75.0,99.0,'11111222,11111222,11144222' 
DISL,ioos:station:DISL:BSCA:1,2013-07-04T10:00:00Z,30.3288,-87.8293,0.0,0.6,149.0,99.0,'11111222,11111222,11144222' 
DISL,ioos:station:DISL:BSCA:1,2013-07-04T10:30:00Z,30.3288,-87.8293,0.0,2.5,125.0,99.0,'11111222,11111222,11144222' 
DISL,ioos:station:DISL:BSCA:1,2013-07-04T11:00:00Z,30.3288,-87.8293,0.0,2.0,60.0,99.0,'11111222,11111222,11144222' 
DISL,ioos:station:DISL:BSCA:1,2013-07-04T11:30:00Z,30.3288,-87.8293,0.0,5.1,11.0,99.0,'11111222,11111222,11144222' 
DISL,ioos:station:DISL:BSCA:1,2013-07-04T12:00:00Z,30.3288,-87.8293,0.0,4.6,35.0,99.0,'11111222,11111222,11144222' 
DISL,ioos:station:DISL:BSCA:1,2013-07-04T12:30:00Z,30.3288,-87.8293,0.0,4.4,31.0,99.0,'11111222,11111222,11144222' 
DISL,ioos:station:DISL:BSCA:1,2013-07-04T13:00:00Z,30.3288,-87.8293,0.0,4.6,35.0,99.0,'11111222,11111222,11144222' 
DISL,ioos:station:DISL:BSCA:1,2013-07-04T13:30:00Z,30.3288,-87.8293,0.0,3.9,34.0,99.0,'11111222,11111222,11144222' 
DISL,ioos:station:DISL:BSCA:1,2013-07-04T14:00:00Z,30.3288,-87.8293,0.0,3.4,73.0,99.0,'11111222,11111222,11144222' 
DISL,ioos:station:DISL:BSCA:1,2013-07-04T14:30:00Z,30.3288,-87.8293,0.0,3.1,89.0,99.0,'11111222,11111222,11144222' 
DISL,ioos:station:DISL:BSCA:1,2013-07-04T15:00:00Z,30.3288,-87.8293,0.0,2.3,96.0,99.0,'11111222,11111222,11144222' 
DISL,ioos:station:DISL:BSCA:1,2013-07-04T15:30:00Z,30.3288,-87.8293,0.0,3.9,129.0,99.0,'11111222,11111222,11144222' 
DISL,ioos:station:DISL:BSCA:1,2013-07-04T16:00:00Z,30.3288,-87.8293,0.0,4.2,106.0,99.0,'11111222,11111222,11144222' 
DISL,ioos:station:DISL:BSCA:1,2013-07-04T16:30:00Z,30.3288,-87.8293,0.0,2.9,116.0,99.0,'11111222,11111222,11144222' 
DISL,ioos:station:DISL:BSCA:1,2013-07-04T17:00:00Z,30.3288,-87.8293,0.0,2.8,121.0,99.0,'11111222,11111222,11144222' 
DISL,ioos:station:DISL:BSCA:1,2013-07-04T17:30:00Z,30.3288,-87.8293,0.0,2.6,142.0,99.0,'11111222,11111222,11144222' 
DISL,ioos:station:DISL:BSCA:1,2013-07-04T18:00:00Z,30.3288,-87.8293,0.0,2.9,144.0,99.0,'11111222,11111222,11144222' 
DISL,ioos:station:DISL:BSCA:1,2013-07-04T18:30:00Z,30.3288,-87.8293,0.0,4.3,143.0,99.0,'11111222,11111222,11144222' 
DISL,ioos:station:DISL:BSCA:1,2013-07-04T19:00:00Z,30.3288,-87.8293,0.0,6.1,143.0,99.0,'11111222,11111222,11144222' 
DISL,ioos:station:DISL:BSCA:1,2013-07-04T19:30:00Z,30.3288,-87.8293,0.0,6.4,142.0,99.0,'11111222,11111222,11144222' 
DISL,ioos:station:DISL:BSCA:1,2013-07-04T20:00:00Z,30.3288,-87.8293,0.0,8.7,128.0,99.0,'11111222,11111222,11144222' 
DISL,ioos:station:DISL:BSCA:1,2013-07-04T20:30:00Z,30.3288,-87.8293,0.0,9.7,136.0,99.0,'11111222,11111222,11144222' 
DISL,ioos:station:DISL:BSCA:1,2013-07-04T21:00:00Z,30.3288,-87.8293,0.0,10.4,131.0,99.0,'11111222,11111222,11144222' 
DISL,ioos:station:DISL:BSCA:1,2013-07-04T21:30:00Z,30.3288,-87.8293,0.0,10.7,130.0,99.0,'11111222,11111222,11144222' 
DISL,ioos:station:DISL:BSCA:1,2013-07-04T22:00:00Z,30.3288,-87.8293,0.0,10.1,132.0,99.0,'11111222,11111222,11144222' 
DISL,ioos:station:DISL:BSCA:1,2013-07-04T22:30:00Z,30.3288,-87.8293,0.0,9.8,132.0,99.0,'11111222,11111222,11144222' 
DISL,ioos:station:DISL:BSCA:1,2013-07-04T23:00:00Z,30.3288,-87.8293,0.0,9.4,136.0,99.0,'11111222,11111222,11144222' 
DISL,ioos:station:DISL:BSCA:1,2013-07-04T23:30:00Z,30.3288,-87.8293,0.0,9.7,134.0,99.0,'11111222,11111222,11144222' 
DISL,ioos:station:DISL:BSCA:1,2013-07-05T00:00:00Z,30.3288,-87.8293,0.0,9.6,129.0,99.0,'11111222,11111222,11144222' 
DISL,ioos:station:DISL:BSCA:1,2013-07-05T00:30:00Z,30.3288,-87.8293,0.0,9.4,137.0,99.0,'11111222,11111222,11144222' 
DISL,ioos:station:DISL:BSCA:1,2013-07-05T01:00:00Z,30.3288,-87.8293,0.0,9.2,142.0,99.0,'11111222,11111222,11144222' 
DISL,ioos:station:DISL:BSCA:1,2013-07-05T01:30:00Z,30.3288,-87.8293,0.0,9.4,148.0,99.0,'11111222,11111222,11144222' 
DISL,ioos:station:DISL:BSCA:1,2013-07-05T02:00:00Z,30.3288,-87.8293,0.0,10.5,153.0,99.0,'11111222,11111222,11144222' 
DISL,ioos:station:DISL:BSCA:1,2013-07-05T02:30:00Z,30.3288,-87.8293,0.0,9.4,148.0,99.0,'11111222,11111222,11144222' 
DISL,ioos:station:DISL:BSCA:1,2013-07-05T03:00:00Z,30.3288,-87.8293,0.0,9.3,155.0,99.0,'11111222,11111222,11144222' 
DISL,ioos:station:DISL:BSCA:1,2013-07-05T03:30:00Z,30.3288,-87.8293,0.0,8.3,163.0,99.0,'11111222,11111222,11144222' 
DISL,ioos:station:DISL:BSCA:1,2013-07-05T04:00:00Z,30.3288,-87.8293,0.0,8.0,170.0,99.0,'11111222,11111222,11144222' 
DISL,ioos:station:DISL:BSCA:1,2013-07-05T04:30:00Z,30.3288,-87.8293,0.0,10.4,170.0,99.0,'11111222,11111222,11144222' 
DISL,ioos:station:DISL:BSCA:1,2013-07-05T05:00:00Z,30.3288,-87.8293,0.0,10.0,173.0,99.0,'11111222,11111222,11144222' 
DISL,ioos:station:DISL:BSCA:1,2013-07-05T05:30:00Z,30.3288,-87.8293,0.0,9.2,171.0,99.0,'11111222,11111222,11144222' 